Time,TemperatureF,DewpointF,PressureIn,WindDirection,WindDirectionDegrees,WindSpeedMPH,WindSpeedGustMPH,Humidity,HourlyPrecipIn,Conditions,Clouds,dailyrainin,SoftwareType,DateUTC
2013-04-15 00:02:00,45.0,44.0,-100.00,WSW,240,4.0,9.0,97,-99.99,,,-99.99,,2013-04-15 07:02:00,
2013-04-15 00:42:00,45.0,44.0,-100.00,SW,234,4.0,8.0,97,-99.99,,,-99.99,,2013-04-15 07:42:00,
2013-04-15 00:52:00,45.0,44.0,-100.00,SW,227,5.0,8.0,97,-99.99,,,-99.99,,2013-04-15 07:52:00,
2013-04-15 01:02:00,45.0,44.0,-100.00,SW,227,5.0,8.0,97,-99.99,,,-99.99,,2013-04-15 08:02:00,
2013-04-15 01:12:00,45.0,44.0,-100.00,SW,229,5.0,7.0,97,-99.99,,,-99.99,,2013-04-15 08:12:00,
2013-04-15 01:22:00,44.0,43.0,-100.00,SW,231,6.0,8.0,97,-99.99,,,-99.99,,2013-04-15 08:22:00,
2013-04-15 01:32:00,44.0,43.0,-100.00,WSW,240,4.0,7.0,97,-99.99,,,-99.99,,2013-04-15 08:32:00,
2013-04-15 01:42:00,44.0,43.0,-100.00,SW,227,6.0,9.0,97,-99.99,,,-99.99,,2013-04-15 08:42:00,
2013-04-15 01:52:00,44.0,43.0,-100.00,SW,236,5.0,8.0,97,-99.99,,,-99.99,,2013-04-15 08:52:00,
2013-04-15 02:02:00,44.0,43.0,-100.00,WSW,240,5.0,8.0,97,-99.99,,,-99.99,,2013-04-15 09:02:00,
2013-04-15 02:12:00,44.0,43.0,-100.00,SW,227,5.0,8.0,97,-99.99,,,-99.99,,2013-04-15 09:12:00,
2013-04-15 02:22:00,44.0,43.0,-100.00,SW,225,5.0,8.0,97,-99.99,,,-99.99,,2013-04-15 09:22:00,
2013-04-15 02:32:00,44.0,43.0,-100.00,SW,229,6.0,9.0,97,-99.99,,,-99.99,,2013-04-15 09:32:00,
2013-04-15 02:42:00,44.0,43.0,-100.00,SW,225,7.0,12.0,97,-99.99,,,-99.99,,2013-04-15 09:42:00,
2013-04-15 02:52:00,44.0,43.0,-100.00,SW,220,7.0,10.0,97,-99.99,,,-99.99,,2013-04-15 09:52:00,
2013-04-15 03:02:00,44.0,43.0,-100.00,SW,217,6.0,10.0,97,-99.99,,,-99.99,,2013-04-15 10:02:00,
2013-04-15 03:12:00,44.0,43.0,-100.00,SW,226,7.0,10.0,97,-99.99,,,-99.99,,2013-04-15 10:12:00,
2013-04-15 03:22:00,44.0,43.0,-100.00,SSW,213,7.0,12.0,97,-99.99,,,-99.99,,2013-04-15 10:22:00,
2013-04-15 03:32:00,44.0,43.0,-100.00,SW,218,6.0,10.0,97,-99.99,,,-99.99,,2013-04-15 10:32:00,
2013-04-15 03:42:00,43.0,42.0,-100.00,SW,220,8.0,13.0,97,-99.99,,,-99.99,,2013-04-15 10:42:00,
2013-04-15 03:52:00,43.0,42.0,-100.00,SW,218,6.0,11.0,97,-99.99,,,-99.99,,2013-04-15 10:52:00,
2013-04-15 04:02:00,43.0,42.0,-100.00,SSW,213,6.0,11.0,97,-99.99,,,-99.99,,2013-04-15 11:02:00,
2013-04-15 04:12:00,43.0,42.0,-100.00,SSW,213,5.0,9.0,97,-99.99,,,-99.99,,2013-04-15 11:12:00,
2013-04-15 04:22:00,43.0,42.0,-100.00,SW,216,6.0,11.0,98,-99.99,,,-99.99,,2013-04-15 11:22:00,
2013-04-15 04:32:00,44.0,43.0,-100.00,SW,223,6.0,10.0,98,-99.99,,,-99.99,,2013-04-15 11:32:00,
2013-04-15 04:42:00,44.0,43.0,-100.00,SW,214,7.0,11.0,98,-99.99,,,-99.99,,2013-04-15 11:42:00,
2013-04-15 04:52:00,43.0,42.0,-100.00,SSW,210,6.0,12.0,97,-99.99,,,-99.99,,2013-04-15 11:52:00,
2013-04-15 05:03:00,44.0,43.0,-100.00,SW,217,6.0,10.0,98,-99.99,,,-99.99,,2013-04-15 12:03:00,
2013-04-15 05:13:00,44.0,43.0,-100.00,SW,215,7.0,13.0,98,-99.99,,,-99.99,,2013-04-15 12:13:00,
2013-04-15 05:22:00,44.0,43.0,-100.00,SW,222,7.0,12.0,98,-99.99,,,-99.99,,2013-04-15 12:22:00,
2013-04-15 05:33:00,44.0,43.0,-100.00,SW,214,8.0,13.0,98,-99.99,,,-99.99,,2013-04-15 12:33:00,
2013-04-15 05:42:00,44.0,43.0,-100.00,SSW,211,8.0,12.0,98,-99.99,,,-99.99,,2013-04-15 12:42:00,
2013-04-15 05:52:00,44.0,43.0,-100.00,SW,217,9.0,14.0,98,-99.99,,,-99.99,,2013-04-15 12:52:00,
2013-04-15 06:03:00,44.0,43.0,-100.00,SW,226,9.0,14.0,98,-99.99,,,-99.99,,2013-04-15 13:03:00,
2013-04-15 06:12:00,44.0,43.0,-100.00,SW,223,9.0,16.0,98,-99.99,,,-99.99,,2013-04-15 13:12:00,
2013-04-15 06:22:00,44.0,43.0,-100.00,SW,223,9.0,16.0,98,-99.99,,,-99.99,,2013-04-15 13:22:00,
2013-04-15 06:32:00,44.0,43.0,-100.00,SW,227,10.0,17.0,98,-99.99,,,-99.99,,2013-04-15 13:32:00,
2013-04-15 06:42:00,43.0,42.0,-100.00,SW,227,8.0,13.0,98,-99.99,,,-99.99,,2013-04-15 13:42:00,
2013-04-15 06:52:00,43.0,42.0,-100.00,SSW,213,7.0,11.0,98,-99.99,,,-99.99,,2013-04-15 13:52:00,
2013-04-15 07:03:00,43.0,42.0,-100.00,SSW,213,7.0,11.0,98,-99.99,,,-99.99,,2013-04-15 14:03:00,
2013-04-15 07:12:00,43.0,42.0,-100.00,SW,220,9.0,14.0,98,-99.99,,,-99.99,,2013-04-15 14:12:00,
2013-04-15 07:32:00,43.0,42.0,-100.00,SSW,200,8.0,12.0,98,-99.99,,,-99.99,,2013-04-15 14:32:00,
2013-04-15 07:43:00,43.0,42.0,-100.00,South,190,6.0,11.0,98,-99.99,,,-99.99,,2013-04-15 14:43:00,
2013-04-15 07:53:00,44.0,43.0,-100.00,SW,218,4.0,8.0,98,-99.99,,,-99.99,,2013-04-15 14:53:00,
2013-04-15 08:02:00,44.0,43.0,-100.00,SSW,209,6.0,11.0,98,-99.99,,,-99.99,,2013-04-15 15:02:00,
2013-04-15 08:12:00,44.0,43.0,-100.00,SSW,192,5.0,8.0,98,-99.99,,,-99.99,,2013-04-15 15:12:00,
2013-04-15 08:22:00,44.0,43.0,-100.00,SSW,199,5.0,9.0,98,-99.99,,,-99.99,,2013-04-15 15:22:00,
2013-04-15 08:34:00,44.0,43.0,-100.00,SSW,192,5.0,9.0,98,-99.99,,,-99.99,,2013-04-15 15:34:00,
2013-04-15 08:43:00,44.0,43.0,-100.00,South,190,7.0,11.0,98,-99.99,,,-99.99,,2013-04-15 15:43:00,
2013-04-15 08:53:00,44.0,43.0,-100.00,SSW,206,6.0,10.0,98,-99.99,,,-99.99,,2013-04-15 15:53:00,
2013-04-15 09:03:00,45.0,44.0,-100.00,SW,218,7.0,11.0,98,-99.99,,,-99.99,,2013-04-15 16:03:00,
2013-04-15 09:12:00,45.0,44.0,-100.00,SW,225,6.0,11.0,98,-99.99,,,-99.99,,2013-04-15 16:12:00,
2013-04-15 09:23:00,45.0,44.0,-100.00,SW,231,7.0,16.0,98,-99.99,,,-99.99,,2013-04-15 16:23:00,
2013-04-15 09:32:00,45.0,44.0,-100.00,SW,220,10.0,18.0,98,-99.99,,,-99.99,,2013-04-15 16:32:00,
2013-04-15 09:43:00,45.0,44.0,-100.00,SW,233,7.0,11.0,98,-99.99,,,-99.99,,2013-04-15 16:43:00,
2013-04-15 09:53:00,45.0,44.0,-100.00,SW,233,7.0,11.0,98,-99.99,,,-99.99,,2013-04-15 16:53:00,
2013-04-15 10:02:00,45.0,44.0,-100.00,SW,230,7.0,12.0,98,-99.99,,,-99.99,,2013-04-15 17:02:00,
2013-04-15 10:13:00,46.0,45.0,-100.00,WSW,237,7.0,11.0,98,-99.99,,,-99.99,,2013-04-15 17:13:00,
2013-04-15 10:21:00,46.0,45.0,-100.00,WSW,237,10.0,17.0,98,-99.99,,,-99.99,,2013-04-15 17:21:00,
2013-04-15 10:43:00,46.0,45.0,-100.00,SW,227,10.0,15.0,97,-99.99,,,-99.99,,2013-04-15 17:43:00,
2013-04-15 10:52:00,46.0,45.0,-100.00,SW,236,9.0,17.0,98,-99.99,,,-99.99,,2013-04-15 17:52:00,
2013-04-15 11:02:00,46.0,45.0,-100.00,SW,232,12.0,18.0,98,-99.99,,,-99.99,,2013-04-15 18:02:00,
2013-04-15 11:12:00,46.0,45.0,-100.00,SW,232,11.0,17.0,98,-99.99,,,-99.99,,2013-04-15 18:12:00,
2013-04-15 11:23:00,46.0,45.0,-100.00,WSW,242,9.0,15.0,98,-99.99,,,-99.99,,2013-04-15 18:23:00,
2013-04-15 11:32:00,46.0,45.0,-100.00,WSW,244,10.0,16.0,98,-99.99,,,-99.99,,2013-04-15 18:32:00,
2013-04-15 11:42:00,46.0,45.0,-100.00,WSW,245,9.0,17.0,97,-99.99,,,-99.99,,2013-04-15 18:42:00,
2013-04-15 11:52:00,46.0,45.0,-100.00,WSW,238,13.0,20.0,97,-99.99,,,-99.99,,2013-04-15 18:52:00,
2013-04-15 12:01:00,46.0,45.0,-100.00,WSW,239,11.0,17.0,97,-99.99,,,-99.99,,2013-04-15 19:01:00,
2013-04-15 12:12:00,47.0,46.0,-100.00,SW,235,11.0,22.0,97,-99.99,,,-99.99,,2013-04-15 19:12:00,
2013-04-15 12:22:00,46.0,45.0,-100.00,SW,235,12.0,17.0,97,-99.99,,,-99.99,,2013-04-15 19:22:00,
2013-04-15 12:33:00,47.0,46.0,-100.00,SW,233,12.0,18.0,97,-99.99,,,-99.99,,2013-04-15 19:33:00,
2013-04-15 12:45:00,46.0,45.0,-100.00,SW,230,14.0,20.0,97,-99.99,,,-99.99,,2013-04-15 19:45:00,
2013-04-15 12:56:00,47.0,46.0,-100.00,SW,230,15.0,23.0,97,-99.99,,,-99.99,,2013-04-15 19:56:00,
2013-04-15 13:02:00,47.0,46.0,-100.00,SW,230,15.0,23.0,97,-99.99,,,-99.99,,2013-04-15 20:02:00,
2013-04-15 13:11:00,47.0,46.0,-100.00,SW,230,15.0,23.0,97,-99.99,,,-99.99,,2013-04-15 20:11:00,
2013-04-15 13:22:00,47.0,46.0,-100.00,SW,232,13.0,21.0,97,-99.99,,,-99.99,,2013-04-15 20:22:00,
2013-04-15 13:32:00,47.0,46.0,-100.00,SW,230,14.0,19.0,97,-99.99,,,-99.99,,2013-04-15 20:32:00,
2013-04-15 13:42:00,47.0,46.0,-100.00,SW,235,12.0,18.0,97,-99.99,,,-99.99,,2013-04-15 20:42:00,
2013-04-15 13:52:00,47.0,46.0,-100.00,SW,230,12.0,18.0,97,-99.99,,,-99.99,,2013-04-15 20:52:00,
2013-04-15 14:02:00,47.0,46.0,-100.00,SW,234,11.0,17.0,97,-99.99,,,-99.99,,2013-04-15 21:02:00,
2013-04-15 14:11:00,46.0,45.0,-100.00,SW,231,13.0,19.0,97,-99.99,,,-99.99,,2013-04-15 21:11:00,
2013-04-15 14:22:00,46.0,45.0,-100.00,SW,233,14.0,21.0,97,-99.99,,,-99.99,,2013-04-15 21:22:00,
2013-04-15 14:32:00,46.0,45.0,-100.00,SW,230,13.0,20.0,97,-99.99,,,-99.99,,2013-04-15 21:32:00,
2013-04-15 14:42:00,46.0,45.0,-100.00,SW,233,12.0,18.0,97,-99.99,,,-99.99,,2013-04-15 21:42:00,
2013-04-15 14:53:00,46.0,45.0,-100.00,SW,230,13.0,20.0,97,-99.99,,,-99.99,,2013-04-15 21:53:00,
2013-04-15 15:02:00,46.0,45.0,-100.00,SW,232,12.0,18.0,97,-99.99,,,-99.99,,2013-04-15 22:02:00,
2013-04-15 15:13:00,46.0,45.0,-100.00,SW,234,11.0,17.0,97,-99.99,,,-99.99,,2013-04-15 22:13:00,
2013-04-15 15:22:00,46.0,45.0,-100.00,SW,233,12.0,19.0,97,-99.99,,,-99.99,,2013-04-15 22:22:00,
2013-04-15 15:32:00,46.0,45.0,-100.00,SW,230,11.0,16.0,97,-99.99,,,-99.99,,2013-04-15 22:32:00,
2013-04-15 15:42:00,47.0,46.0,-100.00,SW,230,11.0,16.0,97,-99.99,,,-99.99,,2013-04-15 22:42:00,
2013-04-15 15:52:00,46.0,45.0,-100.00,SW,232,10.0,14.0,97,-99.99,,,-99.99,,2013-04-15 22:52:00,
2013-04-15 16:02:00,47.0,46.0,-100.00,SW,236,9.0,13.0,97,-99.99,,,-99.99,,2013-04-15 23:02:00,
2013-04-15 16:12:00,47.0,46.0,-100.00,SW,229,10.0,14.0,97,-99.99,,,-99.99,,2013-04-15 23:12:00,
2013-04-15 16:22:00,47.0,46.0,-100.00,SW,229,11.0,16.0,96,-99.99,,,-99.99,,2013-04-15 23:22:00,
2013-04-15 16:32:00,47.0,46.0,-100.00,SW,234,9.0,14.0,95,-99.99,,,-99.99,,2013-04-15 23:32:00,
2013-04-15 16:42:00,47.0,45.0,-100.00,SW,234,7.0,13.0,93,-99.99,,,-99.99,,2013-04-15 23:42:00,
2013-04-15 16:52:00,47.0,45.0,-100.00,West,265,8.0,12.0,93,-99.99,,,-99.99,,2013-04-15 23:52:00,
2013-04-15 17:02:00,47.0,45.0,-100.00,SW,232,9.0,15.0,92,-99.99,,,-99.99,,2013-04-16 00:02:00,
2013-04-15 17:11:00,47.0,44.0,-100.00,SW,231,9.0,13.0,90,-99.99,,,-99.99,,2013-04-16 00:11:00,
2013-04-15 17:22:00,48.0,45.0,-100.00,SW,236,7.0,12.0,89,-99.99,,,-99.99,,2013-04-16 00:22:00,
2013-04-15 17:31:00,48.0,44.0,-100.00,SW,230,8.0,12.0,87,-99.99,,,-99.99,,2013-04-16 00:31:00,
2013-04-15 17:42:00,48.0,44.0,-100.00,SW,230,8.0,12.0,87,-99.99,,,-99.99,,2013-04-16 00:42:00,
2013-04-15 17:51:00,48.0,45.0,-100.00,WSW,240,8.0,13.0,89,-99.99,,,-99.99,,2013-04-16 00:51:00,
2013-04-15 18:02:00,47.0,44.0,-100.00,WSW,240,9.0,12.0,89,-99.99,,,-99.99,,2013-04-16 01:02:00,
2013-04-15 18:12:00,47.0,44.0,-100.00,SW,234,9.0,14.0,88,-99.99,,,-99.99,,2013-04-16 01:12:00,
2013-04-15 18:22:00,47.0,44.0,-100.00,SW,229,8.0,12.0,88,-99.99,,,-99.99,,2013-04-16 01:22:00,
2013-04-15 18:32:00,47.0,44.0,-100.00,WSW,246,7.0,13.0,89,-99.99,,,-99.99,,2013-04-16 01:32:00,
2013-04-15 18:42:00,47.0,44.0,-100.00,WSW,239,8.0,13.0,88,-99.99,,,-99.99,,2013-04-16 01:42:00,
2013-04-15 18:52:00,47.0,43.0,-100.00,SW,224,8.0,11.0,87,-99.99,,,-99.99,,2013-04-16 01:52:00,
2013-04-15 19:02:00,47.0,44.0,-100.00,SW,234,8.0,14.0,88,-99.99,,,-99.99,,2013-04-16 02:02:00,
2013-04-15 19:12:00,46.0,42.0,-100.00,SW,233,10.0,15.0,86,-99.99,,,-99.99,,2013-04-16 02:12:00,
2013-04-15 19:21:00,46.0,43.0,-100.00,SW,236,9.0,15.0,88,-99.99,,,-99.99,,2013-04-16 02:21:00,
2013-04-15 19:32:00,46.0,43.0,-100.00,SW,225,10.0,16.0,90,-99.99,,,-99.99,,2013-04-16 02:32:00,
2013-04-15 19:42:00,45.0,43.0,-100.00,SW,218,8.0,13.0,92,-99.99,,,-99.99,,2013-04-16 02:42:00,
2013-04-15 19:51:00,45.0,43.0,-100.00,SW,222,6.0,11.0,93,-99.99,,,-99.99,,2013-04-16 02:51:00,
2013-04-15 20:02:00,45.0,43.0,-100.00,WSW,239,7.0,12.0,93,-99.99,,,-99.99,,2013-04-16 03:02:00,
2013-04-15 20:12:00,45.0,43.0,-100.00,SW,228,9.0,13.0,94,-99.99,,,-99.99,,2013-04-16 03:12:00,
2013-04-15 20:22:00,45.0,44.0,-100.00,SW,227,9.0,15.0,95,-99.99,,,-99.99,,2013-04-16 03:22:00,
2013-04-15 20:32:00,45.0,44.0,-100.00,SW,228,8.0,14.0,95,-99.99,,,-99.99,,2013-04-16 03:32:00,
2013-04-15 20:43:00,44.0,43.0,-100.00,SW,225,8.0,13.0,95,-99.99,,,-99.99,,2013-04-16 03:43:00,
2013-04-15 20:52:00,44.0,43.0,-100.00,SW,221,9.0,15.0,95,-99.99,,,-99.99,,2013-04-16 03:52:00,
2013-04-15 21:02:00,44.0,43.0,-100.00,SW,222,9.0,14.0,95,-99.99,,,-99.99,,2013-04-16 04:02:00,
2013-04-15 21:12:00,44.0,43.0,-100.00,SW,215,8.0,15.0,95,-99.99,,,-99.99,,2013-04-16 04:12:00,
2013-04-15 21:23:00,44.0,43.0,-100.00,SSW,204,7.0,11.0,95,-99.99,,,-99.99,,2013-04-16 04:23:00,
2013-04-15 21:32:00,44.0,42.0,-100.00,SSW,203,8.0,15.0,94,-99.99,,,-99.99,,2013-04-16 04:32:00,
2013-04-15 21:42:00,44.0,42.0,-100.00,SW,214,8.0,13.0,94,-99.99,,,-99.99,,2013-04-16 04:42:00,
2013-04-15 21:52:00,44.0,42.0,-100.00,SW,220,8.0,13.0,94,-99.99,,,-99.99,,2013-04-16 04:52:00,
2013-04-15 22:02:00,43.0,41.0,-100.00,SSW,204,8.0,15.0,93,-99.99,,,-99.99,,2013-04-16 05:02:00,
2013-04-15 22:12:00,43.0,41.0,-100.00,SSW,207,7.0,13.0,93,-99.99,,,-99.99,,2013-04-16 05:12:00,
2013-04-15 22:22:00,43.0,41.0,-100.00,SW,220,9.0,15.0,93,-99.99,,,-99.99,,2013-04-16 05:22:00,
2013-04-15 22:32:00,43.0,41.0,-100.00,SW,221,10.0,14.0,93,-99.99,,,-99.99,,2013-04-16 05:32:00,
2013-04-15 22:42:00,43.0,41.0,-100.00,SSW,209,8.0,14.0,92,-99.99,,,-99.99,,2013-04-16 05:42:00,
2013-04-15 22:51:00,43.0,41.0,-100.00,SSW,197,8.0,16.0,91,-99.99,,,-99.99,,2013-04-16 05:51:00,
2013-04-15 23:02:00,43.0,41.0,-100.00,SSW,210,7.0,11.0,91,-99.99,,,-99.99,,2013-04-16 06:02:00,
2013-04-15 23:12:00,43.0,40.0,-100.00,SSW,198,5.0,11.0,90,-99.99,,,-99.99,,2013-04-16 06:12:00,
2013-04-15 23:22:00,43.0,40.0,-100.00,South,191,6.0,10.0,89,-99.99,,,-99.99,,2013-04-16 06:22:00,
2013-04-15 23:32:00,43.0,40.0,-100.00,SSW,202,5.0,8.0,88,-99.99,,,-99.99,,2013-04-16 06:32:00,
2013-04-15 23:42:00,43.0,40.0,-100.00,SW,214,7.0,12.0,88,-99.99,,,-99.99,,2013-04-16 06:42:00,
2013-04-15 23:52:00,43.0,41.0,-100.00,SSW,211,6.0,10.0,91,-99.99,,,-99.99,,2013-04-16 06:52:00,